{"data":{"norad_id":66478,"epoch":"2026-05-24T14:30:13.670496Z","epoch_age_seconds":99428,"freshness":"FRESH","line1":"1 66478U 25262Y   26144.60432489  .00024672  00000+0  90264-3 0  9995","line2":"2 66478  42.9992 227.6936 0001653 268.6474  91.4189 15.27595787 30512","mean_motion":15.27595787,"eccentricity":0.0001653,"inclination_deg":42.9992,"raan_deg":227.6936,"arg_perigee_deg":268.6474,"mean_anomaly_deg":91.4189,"bstar":0.00090264,"rev_number":3051,"period_min":94.265774510152,"perigee_km":481.86767824173,"apogee_km":484.13597073711,"semimajor_km":6861.1388244894,"source":"CELESTRAK","updated_at":"2026-05-25T13:38:21.239837Z"}}